Regional Weather Roundup
Issued by NWS

Home | Current Version | Previous Version | Graphics & Text | Print | Product List | Glossary Off
Versions: 1 2 3 4 5 6 7 8 9 10 11 12 13 14 15 16 17 18 19 20 21 22 23 24 25 26 27 28 29 30 31 32 33 34 35 36 37 38 39 40 41 42 43 44 45 46 47 48 49 50

000
ASUS43 KMPX 301510
RWRMN
WEATHER ROUNDUP FOR MINNESOTA
NATIONAL WEATHER SERVICE TWIN CITIES/CHANHASSEN MN
1000 AM CDT SAT AUG 30 2014


NOTE: "FAIR" INDICATES FEW OR NO CLOUDS BELOW 12,000 FEET WITH NO
SIGNIFICANT WEATHER AND/OR OBSTRUCTIONS TO VISIBILITY. N/A MEANS
CURRENT SKY AND/OR WEATHER CONDITIONS ARE NOT AVAILABLE.

MNZ060>063-068>070-301600-
   Twin Cities Metro

CITY           SKY/WX    TMP DP  RH WIND       PRES   REMARKS
TWIN CITIES    MOSUNNY   70  63  78 N8        29.84R
ST PAUL        PTSUNNY   69  63  81 NW9       29.83S
CRYSTAL        CLOUDY    70  62  76 N10       29.83R
BLAINE         CLOUDY    70  64  83 NW9       29.84R
LAKEVILLE      PTSUNNY   70  63  78 N9        29.84R
EDEN PRAIRIE   PTSUNNY   71  64  78 N6        29.83R
SOUTH ST PAUL  CLOUDY    68  62  82 N8        29.83R
LAKE ELMO      CLOUDY    66  63  88 N6        29.84S
$$
MNZ001>005-007-008-013>017-022>024-027-028-301600-
   Northwest Minnesota

CITY           SKY/WX    TMP DP  RH WIND       PRES   REMARKS
BEMIDJI        CLOUDY    58  54  88 NE9       29.92R
HALLOCK        SUNNY     61  54  77 NE6       29.94F
ROSEAU         MOSUNNY   59  54  82 E6        29.94F
WARROAD        MOSUNNY   61  55  82 E8        29.94F
THIEF RVR FALL CLOUDY    55  54  94 E10       29.94S
CROOKSTON      CLOUDY    57  54  88 E6        29.94F
FOSSTON        CLOUDY    59  57  94 NE9       29.93S
DETROIT LAKES  CLOUDY    61  55  82 NE7       29.91S
MOORHEAD       CLOUDY    57  57 100 N10       29.92F
PARK RAPIDS    CLOUDY    59  55  87 N5        29.90R
MAHNOMEN       CLOUDY    60  56  88 NE9       29.91R
$$
MNZ006-009>011-018-025>026-301600-
   North Central Minnesota

CITY           SKY/WX    TMP DP  RH WIND       PRES   REMARKS
BAUDETTE       CLOUDY    59  52  77 E10       29.94S
FLAG ISLAND    PTSUNNY   59  54  82 E5        29.95R
INTL FALLS     MOSUNNY   62  53  72 NE9       29.93R
WASKISH        CLOUDY    59  55  88 NE7       29.93S
BIG FORK       CLOUDY    61  55  82 NE6       29.92R
LONGVILLE      CLOUDY    57  57 100 CALM      29.89S FOG
GRAND RAPIDS   CLOUDY    57  55  94 N7        29.89S
CRANE LAKE     CLOUDY    59  54  82 N5        29.93R
ORR            CLOUDY    61  52  72 NE3       29.88S
COOK           CLOUDY    59  55  88 NE5       29.90S
WALKER         CLOUDY    57  55  92 N6        29.90F
$$
MNZ012-019>021-037-301600-
   Northeast Minnesota

CITY           SKY/WX    TMP DP  RH WIND       PRES   REMARKS
DULUTH         CLOUDY    64  60  87 N8        29.86S
ELY            CLOUDY    59  55  88 N3        29.89S
HIBBING        CLOUDY    62  57  83 N7        29.89S
EVELETH        CLOUDY    59  59 100 N7        29.89S
DULUTH HARBOR  CLOUDY    64  61  88 NE5       29.86R
TWO HARBORS    CLOUDY    63  57  82 N5        29.84R
SILVER BAY     PTSUNNY   63  63 100 N5        29.84S
GRAND MARAIS     N/A     62  60  93 CALM      29.84R
G MARAIS ARPRT CLOUDY    59  55  88 N5        29.88S
$$
MNZ029>031-032-039>041-046>048-054>057-064-301600-
   West Central Minnesota

CITY           SKY/WX    TMP DP  RH WIND       PRES   REMARKS
FERGUS FALLS   CLOUDY    63  59  88 NW6       29.90R
WHEATON        CLOUDY    57  55  94 NW8       29.92S
MORRIS         CLOUDY    61  61 100 NW9       29.89R FOG
ALEXANDRIA     CLOUDY    64  60  87 N7        29.90S
ELBOW LAKE     CLOUDY    62  59  91 N5        29.89S
WADENA         CLOUDY    59  57  94 CALM      29.89S
GLENWOOD       CLOUDY    64  63  94 N8        29.89S FOG
APPLETON       CLOUDY    63  59  88 W8        29.90R
BENSON         CLOUDY    63  61  94 N8        29.89S
ORTONVILLE     CLOUDY    61  55  82 N9        29.91S
MADISON        SUNNY     64  61  88 NW7       29.91S
WILLMAR        CLOUDY    64  63  94 W6        29.89S FOG
$$
MNZ033>034-036-042>043-049>051-058-059-301600-
   Central Minnesota

CITY           SKY/WX    TMP DP  RH WIND       PRES   REMARKS
ST CLOUD       CLOUDY    72  63  73 VRB3      29.85R
SAUK CENTRE    CLOUDY    63  61  94 N8        29.89R
PAYNESVILLE    HVY RAIN  66  64  93 NW5       29.87S
AITKIN         MIX PCPN  64  59  82 N7        29.87R
PINE RIVER     CLOUDY    61  61 100 N9        29.92S
BRAINERD       CLOUDY    61  60  97 N8        29.88R FOG
STAPLES        CLOUDY    59  57  94 N7        29.89S
LONG PRAIRIE   CLOUDY    61  59  94 NW7       29.89R
LITTLE FALLS   DRIZZLE   63  61  94 NW6       29.88R
LITCHFIELD     CLOUDY    70  68  94 N3        29.87R
BUFFALO        PTSUNNY   70  61  73 N7        29.86R
MAPLE LAKE     PTSUNNY   71  65  82 N6        29.87R
$$
MNZ037-044-045-052-053-301600-
   East Central Minnesota

CITY           SKY/WX    TMP DP  RH WIND       PRES   REMARKS
PRINCETON      MOSUNNY   72  63  73 N10       29.85S
MORA           PTSUNNY   64  59  82 NE7       29.87S
CAMBRIDGE      PTSUNNY   70  57  64 N6        29.83S
RUSH CITY      CLOUDY    65  59  81 NE8G16    29.85R
MOOSE LAKE     CLOUDY    64  61  88 NE6       29.84F
HINCKLEY       CLOUDY    68  61  77 NE13G20   29.85R
CLOQUET        CLOUDY    64  61  88 N6        29.87R
MCGREGOR       CLOUDY    63  63 100 NE6       29.87S
$$
MNZ071>073-080-081-089-090-097-098-301600-
   Southwest Minnesota

CITY           SKY/WX    TMP DP  RH WIND       PRES   REMARKS
MONTEVIDEO     CLOUDY    63  63 100 N8        29.91R
GRANITE FALLS  CLOUDY    62  61  97 W9G16     29.91S
CANBY          CLOUDY    61  60  94 NW9       29.92F
MARSHALL       CLOUDY    61  57  88 NW12      29.90S
REDWOOD FALLS  CLOUDY    64  63  96 W12       29.89R FOG
OLIVIA         CLOUDY    63  61  94 NW9       29.88R FOG
PIPESTONE      CLOUDY    63  61  94 N9        29.93S FOG
WINDOM         CLOUDY    63  61  94 NW12      29.91R FOG
WORTHINGTON    CLOUDY    64  63  94 N6        29.93S
JACKSON        CLOUDY    64  61  88 NW8       29.91S
TRACY          CLOUDY    62  61  97 NW7       29.92S FOG
SLAYTON        CLOUDY    61  61 100 CALM      29.93S FOG
$$
MNZ065>067-074>077-082>085-091>093-301600-
   South Central Minnesota

CITY           SKY/WX    TMP DP  RH WIND       PRES   REMARKS
MANKATO        CLOUDY    68  64  88 NW8       29.86R
NEW ULM        SUNNY     64  64 100 NW9       29.87S
ST JAMES       CLOUDY    66  63  88 W10       29.89S
FAIRMONT       CLOUDY    64  55  72 NW8       29.88S
GLENCOE        PTSUNNY   71  64  78 N6        29.85R
FARIBAULT      MOSUNNY   73  63  68 N6        29.85R
OWATONNA       MOSUNNY   70  63  78 NW9       29.85R
WASECA         PTSUNNY   72  63  73 NW7       29.87S
ALBERT LEA     CLOUDY    70  66  88 NW5       29.86R
$$
MNZ078>079-086>088-094>096-301600-
   Southeast Minnesota

CITY           SKY/WX    TMP DP  RH WIND       PRES   REMARKS
ROCHESTER      CLOUDY    71  65  81 NW10      29.85R
RED WING       CLOUDY    68  64  88 NW5       29.81R
STANTON        PTSUNNY   70  63  77 N10       29.82R
DODGE CENTER   CLOUDY    70  64  83 N10       29.84S
WINONA         CLOUDY    70  68  94 NW5       29.80R FOG
AUSTIN         CLOUDY    70  64  83 NW9       29.84S
PRESTON        CLOUDY    67  67 100 NW3       29.84R
$$
ABBREVIATIONS USED IN REMARKS
   TC - TEMPERATURES IN CELSIUS
  WCI - WIND CHILL INDEX
   HX - HEAT INDEX
  VSB - VISIBILITY
$$



USA.gov is the U.S. government's official web portal to all federal, state and local government web resources and services.